Weather reports worldwide

Advertisment
Ploumanach, France (7117): temperature & dewpoint: 10.01.2018 20:00:00 - 16.01.2018 20:00:00 (CET)Ploumanach, France (7117): wind speed & gusts: 10.01.2018 20:00:00 - 16.01.2018 20:00:00 (CET)Ploumanach, France (7117): wind direction: 10.01.2018 20:00:00 - 16.01.2018 20:00:00 (CET)Ploumanach, France (7117): reduced air pressure: 10.01.2018 20:00:00 - 16.01.2018 20:00:00 (CET)Ploumanach, France (7117): visibility: 10.01.2018 20:00:00 - 16.01.2018 20:00:00 (CET)Ploumanach, France (7117): precipitation: 10.01.2018 20:00:00 - 16.01.2018 20:00:00 (CET)
Date & Time tt [°C] td [°C] ff [km/h] ff [kn] fx [km/h] fx [kn] dd ppp [hPa] vv [km] rr [mm]
16.01.2018 20:00:00 6,7 4,9 48 26 85 46 W 1004,7 - 0,8
16.01.2018 19:00:00 7,2 5,8 39 21 96 52 W 1004,7 4,0 0,8
16.01.2018 18:00:00 6,8 5,3 42 23 93 50 W 1004,6 - 0,6
16.01.2018 17:00:00 8,2 4,2 49 27 106 57 W 1004,6 - 0,4
16.01.2018 16:00:00 7,8 5,3 51 28 91 49 W 1004,7 8 0,4
16.01.2018 15:00:00 9,1 4,9 45 24 81 44 W 1004,8 - 0,0
16.01.2018 14:00:00 9,0 5,4 41 22 89 48 W 1005,9 - 0,0
16.01.2018 13:00:00 10,2 4,8 45 24 83 45 W 1006,6 7 0,0
16.01.2018 12:00:00 10,2 6,0 39 21 80 43 W 1006,8 - 0,0
16.01.2018 11:00:00 9,9 5,9 40 22 77 42 W 1006,2 - 0,2
16.01.2018 10:00:00 10,4 6,2 44 24 85 46 W 1005,9 8 0,0
16.01.2018 09:00:00 10,1 6,2 37 20 68 37 W 1005,7 - 0,0
16.01.2018 08:00:00 9,5 7,4 32 17 78 42 W 1005,5 - 0,2
16.01.2018 07:00:00 9,6 6,7 41 22 76 41 W 1004,5 8 0,0
16.01.2018 06:00:00 10,1 7,5 43 23 86 47 W 1004,1 - 0,2
16.01.2018 05:00:00 10,3 8,9 44 24 84 45 WSW 1003,4 - 0,2
16.01.2018 04:00:00 10,0 8,4 34 18 76 41 W 1004,2 - 0,0
16.01.2018 03:00:00 9,8 9,2 35 19 87 47 WSW 1004,1 - 0,4
16.01.2018 02:00:00 9,7 8,1 46 25 74 40 W 1004,3 - 0,0
16.01.2018 01:00:00 10,0 8,3 34 19 69 37 WSW 1004,6 - 0,2
16.01.2018 00:00:00 9,8 8,4 36 19 75 41 W 1004,9 - 0,2
15.01.2018 23:00:00 9,7 8,8 42 23 74 40 WSW 1004,5 - 0,2
15.01.2018 22:00:00 10,6 6,3 37 20 74 40 W 1004,4 - 0,0
15.01.2018 21:00:00 10,1 8,7 34 19 62 34 WSW 1004,6 - 0,0
15.01.2018 20:00:00 9,9 9,3 30 16 62 33 WSW 1004,5 - 0,2
15.01.2018 19:00:00 10,6 8,4 31 17 65 35 WSW 1004,3 7 0,0
15.01.2018 18:00:00 10,1 8,5 39 21 65 35 W 1004,9 - 0,0
15.01.2018 17:00:00 10,8 8,7 34 18 67 36 W 1004,1 - 0,0
15.01.2018 16:00:00 10,7 8,8 45 25 74 40 W 1003,4 5 0,0
15.01.2018 15:00:00 11,0 9,4 34 18 64 34 WSW 1003,7 - 0,0
15.01.2018 14:00:00 11,0 10,7 36 19 74 40 W 1003,8 - 0,0
15.01.2018 13:00:00 11,1 10,9 41 22 67 36 W 1004,0 4,0 0,0
15.01.2018 12:00:00 11,4 11,1 45 24 78 42 WSW 1004,2 - 1,4
15.01.2018 11:00:00 11,0 10,7 38 20 69 37 SW 1004,7 - 1,6
15.01.2018 10:00:00 10,3 9,7 40 22 69 37 SW 1005,3 3,0 1,0
15.01.2018 09:00:00 9,9 8,8 39 21 69 37 SW 1006,6 - 0,0
15.01.2018 08:00:00 9,3 8,5 37 20 65 35 SW 1007,9 - 0,4
15.01.2018 07:00:00 9,1 8,0 37 20 70 38 SW 1008,9 6 0,0
15.01.2018 06:00:00 8,9 7,0 32 17 54 29 SW 1010,3 - 0,0
15.01.2018 05:00:00 8,5 6,3 24 13 43 23 SSW 1012,1 - 0,0
15.01.2018 04:00:00 7,7 5,7 22 12 44 24 SSW 1013,6 - 0,0
15.01.2018 03:00:00 7,1 4,7 23 12 46 25 SSW 1014,7 - 0,0
15.01.2018 02:00:00 7,0 4,1 29 16 51 27 SSW 1015,9 - 0,0
15.01.2018 01:00:00 6,5 4,0 20 11 35 19 SSW 1016,6 - 0,0
15.01.2018 00:00:00 5,7 3,7 20 11 33 18 SSW 1017,5 - 0,0
14.01.2018 23:00:00 5,7 4,2 16 9 30 16 SSW 1018,3 - 0,0
14.01.2018 22:00:00 5,1 3,1 16 9 24 13 SSW 1018,8 - 0,0
14.01.2018 21:00:00 4,9 2,8 13 7 19 10 S 1018,8 - 0,0
14.01.2018 20:00:00 5,2 2,9 9 5 16 8 S 1018,7 - 0,0
14.01.2018 19:00:00 4,9 2,6 8 4 13 7 SSW 1018,2 8 0,0
14.01.2018 18:00:00 5,1 1,8 7 4 16 9 S 1017,9 - 0,0
14.01.2018 17:00:00 6,5 2,6 7 4 14 7 W 1018,4 - 0,0
14.01.2018 16:00:00 7,7 2,8 4 2 11 6 W 1017,8 6 0,0
14.01.2018 15:00:00 8,1 3,2 4 2 9 5 N 1017,6 - 0,0
14.01.2018 14:00:00 7,6 3,6 5 3 12 7 NNE 1017,9 - 0,0
14.01.2018 13:00:00 7,9 3,5 8 4 18 10 NE 1017,9 6 0,0
14.01.2018 12:00:00 6,8 3,6 15 8 26 14 NE 1018,3 - 0,0
14.01.2018 11:00:00 6,7 3,7 19 10 25 14 NE 1017,6 - 0,0
14.01.2018 10:00:00 5,6 4,1 0 0 5 3 N 1017,3 10 0,0
14.01.2018 09:00:00 5,8 3,5 0 0 6 4 N 1016,6 - 0,0
14.01.2018 08:00:00 5,4 3,4 3 2 5 3 ESE 1016,2 - 0,0
14.01.2018 07:00:00 5,3 3,3 4 2 6 3 E 1015,8 14 0,0
14.01.2018 06:00:00 4,8 3,0 4 2 8 4 SE 1015,7 - 0,0
14.01.2018 05:00:00 4,5 2,8 4 2 13 7 SE 1015,5 - 0,0
14.01.2018 04:00:00 4,2 2,5 6 3 13 7 ESE 1015,3 - 0,0
14.01.2018 03:00:00 4,7 2,9 10 5 18 10 E 1015,2 - 0,0
14.01.2018 02:00:00 4,9 3,2 8 4 14 8 E 1015,2 - 0,0
14.01.2018 01:00:00 4,9 3,2 8 4 16 9 ESE 1015,2 - 0,0
14.01.2018 00:00:00 5,1 3,6 11 6 19 10 E 1015,0 - 0,0
13.01.2018 23:00:00 5,0 3,5 8 4 19 10 ESE 1014,9 - 0,0
13.01.2018 22:00:00 5,4 3,9 13 7 24 13 E 1014,5 - 0,0
13.01.2018 21:00:00 5,5 4,0 14 8 34 18 ESE 1014,5 - 0,0
13.01.2018 20:00:00 5,4 3,7 10 6 21 11 ESE 1014,3 - 0,0
13.01.2018 19:00:00 5,3 3,9 8 4 16 9 E 1013,9 14 1,6
13.01.2018 18:00:00 6,0 3,0 8 5 19 10 SE 1013,8 - 0,0
13.01.2018 17:00:00 6,1 3,1 6 4 14 8 ESE 1013,4 - 0,0
13.01.2018 16:00:00 6,5 3,1 5 3 27 15 SE 1013,3 14 0,0
13.01.2018 15:00:00 6,9 3,1 10 5 23 12 SE 1013,0 - 0,0
13.01.2018 14:00:00 6,8 3,2 15 8 31 17 ESE 1013,4 - 0,0
13.01.2018 13:00:00 6,6 3,4 12 6 32 17 SE 1014,2 14 0,0
13.01.2018 12:00:00 6,1 3,4 14 8 31 17 SE 1014,7 - 0,0
13.01.2018 11:00:00 6,0 3,5 15 8 27 15 ESE 1014,7 - 0,0
13.01.2018 10:00:00 5,8 4,0 11 6 29 16 SE 1014,9 8 0,2
13.01.2018 09:00:00 5,8 3,8 13 7 29 16 ESE 1015,0 - 0,0
13.01.2018 08:00:00 5,8 3,5 12 6 32 17 ESE 1015,2 - 0,0
13.01.2018 07:00:00 5,6 3,3 14 8 31 17 SE 1015,1 20 0,0
13.01.2018 06:00:00 5,2 3,0 14 8 35 19 SE 1015,2 - 0,0
13.01.2018 05:00:00 5,0 2,5 15 8 43 23 SE 1016,0 - 0,0
13.01.2018 04:00:00 5,0 2,5 17 9 40 21 SE 1016,6 - 0,0
13.01.2018 03:00:00 5,2 2,5 10 5 42 23 SE 1017,7 - 0,0
13.01.2018 02:00:00 5,4 2,9 18 10 46 25 SSE 1018,5 - 0,0
13.01.2018 01:00:00 5,1 2,8 19 11 40 22 SSE 1018,8 - 0,0
13.01.2018 00:00:00 4,4 2,4 14 8 34 18 ESE 1019,5 - 0,0
12.01.2018 23:00:00 4,8 2,5 15 8 35 19 SE 1020,1 - 0,0
12.01.2018 22:00:00 4,9 2,6 11 6 29 16 SE 1021,3 - 0,0
12.01.2018 21:00:00 4,8 2,7 10 6 29 16 SSE 1022,1 - 0,0
12.01.2018 20:00:00 4,8 3,1 6 4 22 12 SSE 1022,1 - 0,0
12.01.2018 19:00:00 4,6 2,9 13 7 32 18 SSE 1022,4 15 0,0
12.01.2018 18:00:00 4,9 2,6 10 5 24 13 SSE 1022,5 - 0,0
12.01.2018 17:00:00 6,4 3,0 11 6 20 11 SE 1022,5 - 0,0
12.01.2018 16:00:00 7,5 2,8 9 5 19 10 SE 1023,0 14 0,0
12.01.2018 15:00:00 8,2 3,2 9 5 24 13 SSE 1023,6 - 0,0
12.01.2018 14:00:00 8,8 3,2 13 7 24 13 SSE 1023,9 - 0,0
12.01.2018 13:00:00 7,9 3,4 11 6 23 13 SSE 1024,7 11 0,0
12.01.2018 12:00:00 7,1 3,3 14 7 22 12 S 1025,8 - 0,0
12.01.2018 11:00:00 5,5 3,2 11 6 18 10 S 1026,0 - 0,0
12.01.2018 10:00:00 5,4 3,1 11 6 18 10 SSE 1025,9 12 0,0
12.01.2018 09:00:00 5,3 3,3 12 7 16 9 SSE 1025,7 - 0,0
12.01.2018 08:00:00 5,7 2,3 10 5 12 7 SSE 1025,5 - 0,0
12.01.2018 07:00:00 5,7 2,3 9 5 11 6 S 1025,3 10 0,0
12.01.2018 06:00:00 5,4 2,2 9 5 13 7 S 1025,5 - 0,0
12.01.2018 05:00:00 6,0 3,0 9 5 10 5 SSW 1025,9 - 0,0
12.01.2018 04:00:00 7,0 2,7 6 3 11 6 S 1025,7 - 0,0
12.01.2018 03:00:00 6,6 2,9 7 4 8 5 SSW 1026,1 - 0,0
12.01.2018 02:00:00 6,7 2,8 4 2 8 4 S 1026,0 - 0,0
12.01.2018 01:00:00 6,8 3,0 6 3 9 5 S 1025,9 - 0,0
12.01.2018 00:00:00 7,2 3,6 8 5 14 8 ENE 1025,4 - 0,0
11.01.2018 23:00:00 8,0 3,6 10 5 22 12 NE 1025,5 - 0,0
11.01.2018 22:00:00 8,2 4,6 16 8 22 12 NNE 1025,5 - 0,0
11.01.2018 21:00:00 8,2 3,8 10 6 25 13 NNE 1025,1 - 0,0
11.01.2018 20:00:00 8,1 4,5 18 10 28 15 NE 1024,3 - 0,0
11.01.2018 19:00:00 7,7 3,7 21 11 29 16 NNE 1023,4 12 0,0
11.01.2018 18:00:00 7,8 5,6 17 9 29 16 N 1023,4 - 0,0
11.01.2018 17:00:00 8,6 6,6 18 10 27 14 N 1022,5 - 0,0
11.01.2018 16:00:00 9,4 7,0 22 12 32 17 NE 1020,9 15 0,0
11.01.2018 15:00:00 10,1 7,2 23 12 35 19 NNE 1020,3 - 0,0
11.01.2018 14:00:00 10,5 7,0 27 15 37 20 NE 1019,2 - 0,0
11.01.2018 13:00:00 9,9 7,1 29 16 40 22 NE 1018,8 20 0,0
11.01.2018 12:00:00 10,4 7,3 31 17 45 25 NE 1018,0 - 0,0
11.01.2018 11:00:00 9,8 7,2 32 18 45 24 NE 1016,9 - 0,0
11.01.2018 10:00:00 9,2 7,1 35 19 46 25 NE 1015,3 20 0,0
11.01.2018 09:00:00 9,0 7,1 34 19 45 24 NE 1013,6 - 0,0
11.01.2018 08:00:00 9,0 7,1 32 17 44 24 NE 1011,8 - 0,0
11.01.2018 07:00:00 8,7 7,0 29 16 42 23 ENE 1010,1 20 0,0
11.01.2018 06:00:00 8,5 7,3 20 11 39 21 ENE 1008,6 - 0,0
11.01.2018 05:00:00 8,3 7,1 19 10 32 17 ENE 1007,3 - 0,0
11.01.2018 04:00:00 8,1 6,6 15 8 28 15 E 1006,4 - 0,0
11.01.2018 03:00:00 8,2 6,3 17 9 31 17 E 1005,1 - 0,0
11.01.2018 02:00:00 8,1 6,1 16 9 27 14 E 1004,5 - 0,0
11.01.2018 01:00:00 7,4 5,5 13 7 29 16 E 1004,0 - 0,0
11.01.2018 00:00:00 7,4 5,4 17 9 26 14 E 1003,2 - 0,0
10.01.2018 23:00:00 7,4 5,5 11 6 20 11 E 1003,0 - 0,0
10.01.2018 22:00:00 7,6 4,9 11 6 24 13 ESE 1002,8 - 0,0
10.01.2018 21:00:00 7,8 4,4 12 6 24 13 ESE 1002,7 - 0,0
10.01.2018 20:00:00 8,9 5,6 10 5 29 16 SE 1003,1 - 0,0

tt = temperature
td = dewpoint
ff = wind speed
fx = gusts
dd = wind direction
ppp = reduced air pressure
vv = visibility
rr = precipitation

Next stations